Home   Weather   Al Khor   Past weeks

Flag for Qatar Past Weather in Al Khor, Qatar — Yesterday and Last 2 Weeks

Now
97 °F

Clear.


Feels Like: 94 °F
Forecast: 78 / 92 °F
Wind: 5 mph from South

Location: Doha International Airport

Current Time: Apr 25, 2017 at 11:56:26 am

Latest Report: Apr 25, 2017 at 10:00 am


Visibility: 6 mi

Pressure: 29.77 "Hg

Humidity: 20%

Dew Point: 50 °F

Location of Al KhorLocation

Past Weather in Al Khor — Graph

°F

Al Khor Temperature Yesterday

Maximum temperature yesterday: 99 °F (at 3:00 pm)
Minimum temperature yesterday: 75 °F (at 6:00 am)
Average temperature yesterday: 86 °F

High & Low Weather Summary for the Past Weeks

 TemperatureHumidityPressure
High106 °F (Apr 15, 12:00 pm)74% (Apr 13, 6:00 am)29.92 "Hg (Apr 13, 6:00 am)
Low75 °F (Apr 15, 4:00 am)10% (Apr 15, 12:00 pm)29.68 "Hg (Apr 16, 1:00 am)
Average86 °F40%29.81 "Hg
* Reported Apr 10 10:00 am — Apr 25 10:00 am, Al Khor, Weather by CustomWeather, © 2017

Note: Actual official high and low records may vary slightly from our data, if they occured in-between our weather recording intervals... More about our weather records

Advertising

Al Khor Weather History for the Previous 24 Hours

Scroll right to see more
 ConditionsComfort  
Time TempWeatherWind HumidityBarometerVisibility
10:00 am
Tue, Apr 25
97 °FClear.5 mph20%29.77 "Hg6 mi
9:00 am91 °FSunny.5 mph30%29.77 "Hg10 mi
8:00 am86 °FSunny.7 mph43%29.77 "Hg10 mi
7:00 am82 °FPassing clouds.6 mph51%29.77 "HgN/A
5:00 am81 °FClear.3 mph48%29.71 "Hg10 mi
4:00 am81 °FClear.2 mph45%29.71 "Hg10 mi
3:00 am79 °FClear.2 mph54%29.71 "Hg10 mi
2:00 am79 °FClear.1 mph51%29.71 "Hg10 mi
1:00 am79 °FClear.1 mph58%29.74 "Hg10 mi
12:00 am79 °FClear.5 mph58%29.74 "Hg10 mi
11:00 pm
Mon, Apr 24
81 °FClear.2 mph51%29.77 "Hg10 mi
10:00 pm81 °FClear.3 mph51%29.77 "Hg10 mi
9:00 pm82 °FClear.5 mph48%29.77 "Hg10 mi
8:00 pm84 °FPassing clouds.3 mph29%29.77 "HgN/A
7:00 pm86 °FClear.6 mph19%29.74 "Hg10 mi
5:00 pm91 °FSunny.6 mph23%29.71 "Hg10 mi
4:00 pm93 °FSunny.10 mph21%29.71 "Hg10 mi
3:00 pm99 °FSunny.12 mph11%29.71 "Hg10 mi
2:00 pm97 °FSunny.10 mph13%29.71 "Hg10 mi
1:00 pm97 °FSunny.9 mph17%29.74 "Hg10 mi
12:00 pm95 °FPassing clouds.8 mph22%29.77 "HgN/A
11:00 am93 °FSunny.7 mph24%29.77 "Hg10 mi
Weather by CustomWeather, © 2017

See weather overviewHow to use our weather pages